AT518 Weather Reports


Display with metric or nautical units.
time (UTC)temp
F
wind
direction
speed
MPH
gust
MPH
rain 1hr
in
rain 24hr
in
rain mn
in
humidity
%
barometer
mb
20260505124550 69 185 13.0 20.0 0.00 0.00 0.00 88 1008.5
20260505123051 69 192 11.0 20.0 0.00 0.00 0.00 88 1008.4
20260505121554 69 184 11.0 22.0 0.00 0.00 0.00 88 1008.2
20260505120053 69 195 13.0 21.0 0.00 0.00 0.00 88 1008.2
20260505114555 69 166 12.0 22.0 0.00 0.00 0.00 89 1008.3
20260505113049 69 182 11.0 21.0 0.00 0.00 0.00 89 1008.2
20260505111547 69 194 11.0 22.0 0.00 0.00 0.00 89 1008.1
20260505101606 69 196 11.0 19.0 0.00 0.00 0.00 89 1008.4
20260505094552 68 205 12.0 20.0 0.00 0.00 0.00 89 1008.2
20260505093101 68 186 12.0 22.0 0.00 0.00 0.00 89 1008.1
20260505091546 68 173 12.0 21.0 0.00 0.00 0.00 89 1008.1
20260505090048 68 184 11.0 21.0 0.00 0.00 0.00 88 1008.2
20260505084551 68 192 11.0 23.0 0.00 0.00 0.00 88 1008.4
20260505083052 68 173 14.0 22.0 0.00 0.00 0.00 88 1008.8
20260505081600 68 189 13.0 24.0 0.00 0.00 0.00 87 1009.1
20260505080059 69 180 13.0 23.0 0.00 0.00 0.00 87 1009.2
20260505074551 69 178 17.0 26.0 0.00 0.00 0.00 87 1009.3
20260505073049 69 193 12.0 25.0 0.00 0.00 0.00 87 1009.6
20260505071554 69 179 15.0 24.0 0.00 0.00 0.00 86 1009.8
20260505070059 69 180 13.0 27.0 0.00 0.00 0.00 86 1009.8
20260505064551 69 360 14.0 24.0 0.00 0.00 0.00 86 1010.0
20260505063051 69 185 13.0 23.0 0.00 0.00 0.00 86 1010.2
20260505061601 69 186 13.0 23.0 0.00 0.00 0.00 86 1010.2
20260505060046 70 185 12.0 23.0 0.00 0.00 0.00 85 1010.1
20260505054550 70 171 11.0 21.0 0.00 0.00 0.00 85 1010.2
20260505053052 70 147 11.0 22.0 0.00 0.00 0.00 85 1010.3
20260505051544 70 203 10.0 23.0 0.00 0.00 0.00 85 1010.2
20260505041548 71 160 11.0 21.0 0.00 0.00 0.00 83 1009.8
20260505040050 71 181 11.0 21.0 0.00 0.00 0.00 82 1010.0
20260505034551 71 172 10.0 19.0 0.00 0.00 0.00 82 1010.1
20260505033046 71 164 11.0 21.0 0.00 0.00 0.00 82 1010.0
20260505031552 71 152 12.0 19.0 0.00 0.00 0.00 81 1010.1
20260505030049 72 177 10.0 19.0 0.00 0.00 0.00 80 1010.2
20260505024554 72 133 12.0 20.0 0.00 0.00 0.00 79 1009.8
20260505023056 72 164 10.0 16.0 0.00 0.00 0.00 79 1009.7
20260505021554 72 164 11.0 17.0 0.00 0.00 0.00 78 1009.9
20260505020054 72 167 9.0 15.0 0.00 0.00 0.00 79 1009.5
20260505014555 71 161 8.0 11.0 0.00 0.00 0.00 80 1009.6
20260505013043 72 157 7.0 11.0 0.00 0.00 0.00 78 1009.7
20260505011554 72 159 8.0 15.0 0.00 0.00 0.00 77 1009.6
20260505010112 73 155 9.0 12.0 0.00 0.00 0.00 76 1009.8
20260505004551 74 163 9.0 15.0 0.00 0.00 0.00 75 1009.7
20260505003055 75 163 9.0 16.0 0.00 0.00 0.00 74 1009.6
20260505001552 76 163 11.0 24.0 0.00 0.00 0.00 71 1009.7
20260505000049 76 159 13.0 23.0 0.00 0.00 0.00 70 1009.8
20260504234551 76 157 13.0 27.0 0.00 0.00 0.00 69 1010.1
20260504233055 77 157 13.0 24.0 0.00 0.00 0.00 68 1010.4
20260504231548 77 163 14.0 23.0 0.00 0.00 0.00 68 1010.5
20260504230047 77 167 12.0 21.0 0.00 0.00 0.00 67 1010.8
20260504224549 77 175 13.0 21.0 0.00 0.00 0.00 67 1010.8
20260504223100 77 164 13.0 27.0 0.00 0.00 0.00 68 1010.8
20260504221603 77 167 11.0 21.0 0.00 0.00 0.00 68 1010.9
20260504220052 77 169 15.0 24.0 0.00 0.00 0.00 67 1010.8
20260504214602 78 183 11.0 22.0 0.00 0.00 0.00 66 1011.1
20260504213108 79 182 11.0 23.0 0.00 0.00 0.00 64 1011.3
20260504211552 78 144 16.0 24.0 0.00 0.00 0.00 64 1011.7
20260504210053 79 195 13.0 21.0 0.00 0.00 0.00 64 1011.9
20260504204553 78 161 14.0 25.0 0.00 0.00 0.00 64 1012.2
20260504203050 77 161 16.0 23.0 0.00 0.00 0.00 65 1012.6
20260504201549 79 161 13.0 21.0 0.00 0.00 0.00 63 1012.9
20260504200100 78 150 13.0 24.0 0.00 0.00 0.00 63 1012.9
20260504194557 78 162 16.0 24.0 0.00 0.00 0.00 63 1013.2
20260504193102 77 182 13.0 20.0 0.00 0.00 0.00 61 1013.6
20260504191602 78 178 13.0 24.0 0.00 0.00 0.00 61 1014.0
20260504190053 77 165 14.0 22.0 0.00 0.00 0.00 60 1014.0
20260504184551 76 188 15.0 24.0 0.00 0.00 0.00 60 1014.0
20260504183054 76 177 12.0 25.0 0.00 0.00 0.00 57 1014.2
20260504181551 76 181 14.0 22.0 0.00 0.00 0.00 62 1014.5
20260504180051 75 170 12.0 24.0 0.00 0.00 0.00 61 1014.8
20260504174555 75 169 15.0 23.0 0.00 0.00 0.00 57 1015.2
20260504173050 74 159 12.0 23.0 0.00 0.00 0.00 61 1015.2
20260504171600 74 163 13.0 24.0 0.00 0.00 0.00 60 1015.4
20260504160106 71 193 15.0 25.0 0.00 0.00 0.00 65 1016.1
20260504150108 68 194 12.0 20.0 0.00 0.00 0.00 72 1016.6